This is the latest recevied weather packets stored in our database for station/object W6SNO-1. If no packets are shown the sender has not sent any weather packets the latest 10 day(s).
| Time | Temp. | Humidity | Pressure | Rain* | Wind** | Luminosity | Snow |
|---|---|---|---|---|---|---|---|
| 1777740061 | 15° C | 79% | 1014.2 hPa | 0 mm | - | 310 W/m² | - |
| 1777739756 | 14.44° C | 80% | 1014.1 hPa | 0 mm | - | 316 W/m² | - |
| 1777739453 | 14.44° C | 81% | 1014.2 hPa | 0 mm | - | 261 W/m² | - |
| 1777739150 | 14.44° C | 80% | 1014.1 hPa | 0 mm | - | 268 W/m² | - |
| 1777738847 | 14.44° C | 80% | 1014.2 hPa | 0 mm | - | 270 W/m² | - |
| 1777738544 | 14.44° C | 80% | 1014 hPa | 0 mm | - | 277 W/m² | - |
| 1777738242 | 14.44° C | 81% | 1013.9 hPa | 0 mm | - | 189 W/m² | - |
| 1777737939 | 14.44° C | 81% | 1014.3 hPa | 0 mm | - | 199 W/m² | - |
| 1777737638 | 14.44° C | 82% | 1014.1 hPa | 0 mm | - | 186 W/m² | - |
| 1777737336 | 13.89° C | 83% | 1014 hPa | 0 mm | - | 175 W/m² | - |
| 1777737033 | 13.89° C | 83% | 1014.1 hPa | 0 mm | - | 175 W/m² | - |
| 1777736729 | 13.33° C | 84% | 1014.1 hPa | 0 mm | - | 126 W/m² | - |
| 1777736100 | 13.33° C | 85% | 1013.9 hPa | 0 mm | - | 98 W/m² | - |
| 1777735797 | 13.33° C | 86% | 1013.8 hPa | 0 mm | - | 84 W/m² | - |
| 1777735495 | 12.78° C | 86% | 1013.8 hPa | 0 mm | - | 72 W/m² | - |
| 1777735193 | 12.78° C | 86% | 1013.3 hPa | 0 mm | - | 72 W/m² | - |
| 1777734889 | 12.78° C | 86% | 1013.7 hPa | 0 mm | - | 70 W/m² | - |
| 1777734587 | 12.78° C | 87% | 1013.6 hPa | 0 mm | - | 62 W/m² | - |
| 1777734283 | 12.78° C | 87% | 1013.5 hPa | 0 mm | - | 56 W/m² | - |
| 1777733979 | 12.78° C | 87% | 1013.8 hPa | 0 mm | - | 52 W/m² | - |
| 1777733676 | 12.78° C | 87% | 1013.5 hPa | 0 mm | - | 48 W/m² | - |
| 1777733373 | 12.78° C | 87% | 1013.6 hPa | 0 mm | - | 38 W/m² | - |
| 1777733070 | 12.78° C | 87% | 1013.5 hPa | 0 mm | - | 31 W/m² | - |
| 1777732766 | 12.78° C | 87% | 1013.5 hPa | 0 mm | - | 31 W/m² | - |
| 1777732463 | 12.78° C | 87% | 1013.3 hPa | 0 mm | - | 30 W/m² | - |
* Rain latest hour (hover to see other rain measurements)
** Current wind speed in m/s (hover to see current wind gust speed)